Racine, WI

9:10 AM CDT on May 24, 2017 (GMT -0500)
Batten

Weather History for KRAC - October, 2012

Change the Weather History Date:

Friday, October 26, 2012

  Actual Average Record
Temperature  
Mean Temperature 40 °F -  
Max Temperature 48 °F 55 °F 80 °F (1963)
Min Temperature 33 °F 40 °F 20 °F (1962)
Degree Days  
Heating Degree Days 24    
Moisture  
Dew Point 28 °F    
Average Humidity 63    
Maximum Humidity 78    
Minimum Humidity 44    
Precipitation  
Precipitation 0.00 in - - ()
Sea Level Pressure  
Sea Level Pressure 30.28 in    
Wind  
Wind Speed 8 mph (NW)    
Max Wind Speed 15 mph    
Max Gust Speed 33 mph    
Visibility 10 miles    
Events      
Averages and records for this station are not official NWS values.
T = Trace of Precipitation, MM = Missing Value Source: NWS Daily Summary

Daily Weather History Graph

Daily Weather History Graph

Search for Another Location

Airport or City:

Trip Planner

Search our weather history database for the weather conditions in past years. The results will help you decide how hot, cold, wet, or windy it might be!

Date:

Astronomy

Oct. 26, 2012 Rise Set
Actual Time 7:18 AM CDT 5:51 PM CDT
Civil Twilight 6:49 AM CDT 6:20 PM CDT
Nautical Twilight 6:16 AM CDT 6:53 PM CDT
Astronomical Twilight 5:43 AM CDT 7:26 PM CDT
Moon 4:09 PM CDT (10/26) 4:10 AM CDT (10/26)
Length of Visible Light 11h 30m
Length of Day
10h 32m
Waxing Gibbous, 91% of the Moon is Illuminated
Oct 26
Waxing Gibbous
Oct 29
Full
Nov 6
Last Quarter
Nov 13
New
Nov 20
First Quarter

Hourly Weather History & Observations

Time (CDT) Temp. Windchill Dew Point Humidity Pressure Visibility Wind Dir Wind Speed Gust Speed Precip Events Conditions
12:53 AM 41.0 °F 33.1 °F 32.0 °F 70% 30.09 in 10.0 mi WNW 15.0 mph 33.4 mph N/A   Overcast
1:53 AM 39.0 °F 33.4 °F 30.9 °F 73% 30.12 in 10.0 mi NW 8.1 mph 19.6 mph N/A   Partly Cloudy
2:53 AM 37.9 °F 31.5 °F 28.9 °F 70% 30.16 in 10.0 mi NW 9.2 mph - N/A   Clear
3:53 AM 37.0 °F 31.0 °F 28.9 °F 73% 30.18 in 10.0 mi NW 8.1 mph - N/A   Partly Cloudy
4:53 AM 36.0 °F 32.1 °F 28.9 °F 76% 30.21 in 10.0 mi WNW 4.6 mph - N/A   Partly Cloudy
5:53 AM 35.1 °F 32.2 °F 27.0 °F 72% 30.24 in 10.0 mi WNW 3.5 mph - N/A   Clear
6:53 AM 33.1 °F 28.7 °F 27.0 °F 78% 30.26 in 10.0 mi WNW 4.6 mph - N/A   Clear
7:53 AM 34.0 °F 29.8 °F 27.0 °F 75% 30.29 in 10.0 mi WNW 4.6 mph - N/A   Clear
8:53 AM 37.9 °F 32.1 °F 27.0 °F 65% 30.33 in 10.0 mi WNW 8.1 mph - N/A   Clear
9:53 AM 41.0 °F 33.9 °F 27.0 °F 57% 30.35 in 10.0 mi NW 12.7 mph 18.4 mph N/A   Clear
10:53 AM 43.0 °F 37.2 °F 27.0 °F 53% 30.35 in 10.0 mi NW 10.4 mph 17.3 mph N/A   Clear
11:53 AM 45.0 °F 38.9 °F 26.1 °F 48% 30.34 in 10.0 mi NW 12.7 mph 18.4 mph N/A   Clear
12:53 PM 45.0 °F 40.1 °F 26.1 °F 48% 30.32 in 10.0 mi WNW 9.2 mph 17.3 mph N/A   Clear
1:53 PM 46.9 °F - 26.1 °F 44% 30.31 in 10.0 mi NNE 6.9 mph - N/A   Clear
2:53 PM 48.0 °F - 28.9 °F 48% 30.31 in 10.0 mi NE 10.4 mph - N/A   Clear
3:53 PM 46.9 °F - 30.0 °F 52% 30.31 in 10.0 mi Calm Calm - N/A   Clear
4:53 PM 45.0 °F 42.6 °F 28.9 °F 53% 30.31 in 10.0 mi ENE 4.6 mph - N/A   Clear
5:53 PM 43.0 °F - 28.9 °F 58% 30.32 in 10.0 mi Calm Calm - N/A   Clear
6:53 PM 41.0 °F - 30.0 °F 65% 30.32 in 10.0 mi Calm Calm - N/A   Clear
7:53 PM 41.0 °F 39.0 °F 30.0 °F 65% 30.32 in 10.0 mi NW 3.5 mph - N/A   Clear
8:53 PM 41.0 °F 37.1 °F 28.0 °F 60% 30.34 in 10.0 mi NNW 5.8 mph - N/A   Clear
9:53 PM 37.9 °F 33.5 °F 28.0 °F 68% 30.35 in 10.0 mi North 5.8 mph - N/A   Clear
10:53 PM 37.0 °F 31.0 °F 28.0 °F 70% 30.35 in 10.0 mi NNW 8.1 mph - N/A   Clear
11:53 PM 36.0 °F 30.3 °F 27.0 °F 70% 30.35 in 10.0 mi NNW 6.9 mph - N/A   Clear